NOAA 16 DEB, 41299

Orbit data source: Space-Track

NOAA 16 DEB, 41299 is space debris in SSO originally from a launch on Thu, 21 Sep 2000 UTC launched from the Air Force Western Test Range (AFWTR). Debris objects in space refer to the collection of defunct objects orbiting the Earth. Examples of debris include non-operational satellites, rocket bodies, and fragments generated from explosions, collisions, or faulty payload assembly.

Loading next visibility...
Identifier
41299, 2000-055HB
Orbit
SSO
Country
Flag of USUS
Related business
Manufacturer
Unknown
Mission
Spacecraft
Bus & Motor
Unknown
Mass
Unknown
Launch date (UTC)
2000-09-21 (26 years ago)
Launch vehicle
Unknown
Launch site
Air Force Western Test Range (AFWTR)
Object type
Payload
Rocket body
Debris
Shape & HBR
Unknown shape, 0.1 m
Radar Cross Section
Medium (>0.1 m² and <1 m²)

Expand to show TLE details & history
Last TLE update: 11 hours ago

TLE from 11 hours ago
0 NOAA 16 DEB
1 41299U 00055HB  26255.59808904  .00001682  00000-0  77383-3 0  9996
2 41299  98.6808 304.4758 0045554 203.6566 156.2517 14.21921163551725
Epoch: 2026-09-12T14:21Z
TLE epoch observation values (Epoch: 2026-09-12T14:21:14.893Z)
Latitude
-0.00004°
Longitude
97.55896°
Altitude
851.82 km
Speed
7.411 km/s
True Right ascension
20h 17m 54s
True Declination
0° 00' 00"
Sunlit
Object was in full shadow at epoch
Visualization orbit readout
Latitude
Unknown
Longitude
Unknown
Altitude
Unknown
Speed
Unknown
Apparent Right ascension
Unknown
Apparent Declination
Unknown
Sunlit
N/A
Visualization observer readout
Local Sidereal Time
17:32:24
Azimuth
Unknown
Elevation
Unknown
Doppler factor
Unknown
Orbital elements
Apogee altitude
848.79 km
Perigee altitude
783.245 km
Semi-major axis
7,194.154 km
Eccentricity
0.00456
Inclination
98.6808°
RAAN
304.4758°
Arg. of periapsis
203.6566°
True anomaly
156.46083°
Mean anomaly
156.2517°
Eccentric anomaly
156.35638°
Mean motion
3.55692 °/min
Orbital period
101.21 mins
BSTAR
0.00077383
Loading maneuver chart data...
Computing Atmospheric mass density...
Loading historical data...
Loading historical data...
Loading historical data...
Loading historical data...
Loading historical data...
Loading historical data...
Loading historical data...

Documentation

Showing up to 5 results
|